Weather History for Park Rapids, MN

Change the Weather History Date:

Sunday, May 27, 2012

  Actual Average Record
Temperature  
Mean Temperature 65 °F -  
Max Temperature 81 °F 73 °F 92 °F (1980)
Min Temperature 51 °F 46 °F 26 °F (1984)
Growing Degree Days 15 (Base 50)    
Moisture  
Dew Point 56 °F    
Average Humidity 90    
Maximum Humidity 100    
Minimum Humidity 64    
Precipitation  
Precipitation 0.95 in - - ()
Sea Level Pressure  
Sea Level Pressure 29.71 in    
Wind  
Wind Speed 12 mph (ESE)    
Max Wind Speed 20 mph    
Max Gust Speed 30 mph    
Visibility 7 miles    
Events Rain    
Averages and records for this station are not official NWS values.
T = Trace of Precipitation, MM = Missing Value Source: NWS Daily Summary

Daily Weather History Graph

Daily Weather History Graph

Search for Another Location

Airport:

Trip Planner

Search our weather history database for the weather conditions in past years. The results will help you decide how hot, cold, wet, or windy it might be!

Date:

Astronomy

May. 27, 2012 Rise Set
Actual Time 5:32 AM CDT 9:02 PM CDT
Civil Twilight 4:54 AM CDT 9:40 PM CDT
Nautical Twilight 4:04 AM CDT 10:31 PM CDT
Astronomical Twilight 2:58 AM CDT 11:38 PM CDT
Moon 11:53 AM CDT (5/27) 12:57 AM CDT (5/27)
Length of Visible Light 16h 46m
Length of Day
15h 30m
Waxing Crescent, 38% of the Moon is Illuminated
May 27
Waxing Crescent
May 28
First Quarter
Jun 4
Full
Jun 11
Last Quarter
Jun 19
New

Hourly Weather History & Observations

Time (CDT) Temp. Dew Point Humidity Pressure Visibility Wind Dir Wind Speed Gust Speed Precip Events Conditions
12:53 AM 51.1 °F 50.0 °F 96% 29.88 in 6.0 mi East 15.0 mph 24.2 mph 0.01 in   Overcast
1:53 AM 51.1 °F 50.0 °F 96% 29.85 in 5.0 mi East 16.1 mph 23.0 mph 0.00 in Rain Light Rain
2:51 AM 51.8 °F 50.0 °F 94% 29.84 in 8.0 mi East 12.7 mph - 0.06 in Rain Rain
2:53 AM 52.0 °F 50.0 °F 93% 29.85 in 7.0 mi East 11.5 mph - 0.06 in Rain Rain
3:09 AM 51.8 °F 50.0 °F 94% 29.84 in 9.0 mi East 9.2 mph - 0.01 in Rain Light Rain
3:16 AM 51.8 °F 50.0 °F 94% 29.83 in 9.0 mi East 8.1 mph - 0.02 in Rain Light Rain
3:53 AM 52.0 °F 50.0 °F 93% 29.86 in 4.0 mi ENE 5.8 mph - 0.13 in Rain Rain
4:23 AM 51.8 °F 50.0 °F 94% 29.80 in 8.0 mi ESE 12.7 mph 19.6 mph 0.06 in Rain Light Rain
4:36 AM 51.8 °F 51.8 °F 100% 29.80 in 9.0 mi East 10.4 mph 18.4 mph 0.07 in Rain Light Rain
4:53 AM 52.0 °F 51.1 °F 97% 29.81 in 10.0 mi East 9.2 mph - 0.08 in Rain Light Rain
5:53 AM 53.1 °F 51.1 °F 93% 29.81 in 8.0 mi East 11.5 mph - 0.08 in Rain Light Rain
6:53 AM 53.1 °F 52.0 °F 96% 29.81 in 9.0 mi East 12.7 mph - 0.08 in Rain Light Rain
7:53 AM 54.0 °F 52.0 °F 93% 29.73 in 4.0 mi East 10.4 mph - 0.18 in Rain Heavy Rain
8:28 AM 53.6 °F 51.8 °F 94% 29.72 in 10.0 mi East 13.8 mph 23.0 mph 0.01 in Rain Light Rain
8:53 AM 54.0 °F 53.1 °F 97% 29.77 in 3.0 mi Variable 3.5 mph - 0.05 in Rain Light Rain
8:56 AM 53.6 °F 53.6 °F 100% 29.74 in 1.8 mi Variable 3.5 mph - 0.03 in Rain Heavy Rain
9:06 AM 53.6 °F 51.8 °F 94% 29.75 in 3.0 mi SE 6.9 mph - 0.05 in Rain Light Rain
9:13 AM 55.4 °F 53.6 °F 94% 29.76 in 5.0 mi SE 6.9 mph - 0.09 in Rain Light Rain
9:19 AM 55.4 °F 53.6 °F 94% 29.73 in 0.8 mi ESE 11.5 mph 18.4 mph 0.23 in Rain Heavy Rain
9:30 AM 55.4 °F 53.6 °F 94% 29.66 in 2.0 mi ESE 19.6 mph 29.9 mph 0.28 in Rain Rain
9:37 AM 55.4 °F 55.4 °F 100% 29.67 in 10.0 mi ESE 16.1 mph 26.5 mph 0.28 in Rain Light Rain
9:53 AM 57.0 °F 55.0 °F 93% 29.69 in 10.0 mi ESE 16.1 mph 25.3 mph 0.28 in   Mostly Cloudy
10:21 AM 57.2 °F 55.4 °F 94% 29.68 in 7.0 mi ESE 11.5 mph - N/A   Overcast
10:53 AM 57.0 °F 55.0 °F 93% 29.68 in 3.0 mi ESE 16.1 mph 25.3 mph N/A   Overcast
11:00 AM 57.2 °F 55.4 °F 94% 29.67 in 2.0 mi ESE 17.3 mph 25.3 mph N/A   Overcast
11:15 AM 57.2 °F 55.4 °F 94% 29.66 in 1.5 mi ESE 15.0 mph - N/A   Overcast
11:53 AM 57.0 °F 55.9 °F 96% 29.68 in 2.0 mi ESE 13.8 mph - N/A   Overcast
12:17 PM 57.2 °F 55.4 °F 94% 29.66 in 3.0 mi ESE 12.7 mph - N/A   Overcast
12:53 PM 57.9 °F 55.9 °F 93% 29.65 in 4.0 mi ESE 10.4 mph 19.6 mph N/A   Overcast
1:53 PM 62.1 °F 57.9 °F 86% 29.64 in 7.0 mi ESE 11.5 mph - N/A   Overcast
2:03 PM 62.6 °F 57.2 °F 82% 29.63 in 8.0 mi SE 10.4 mph - N/A   Overcast
2:33 PM 66.2 °F 60.8 °F 83% 29.62 in 10.0 mi ESE 8.1 mph - N/A   Overcast
2:53 PM 68.0 °F 62.1 °F 81% 29.62 in 10.0 mi ESE 8.1 mph - N/A   Overcast
3:15 PM 69.8 °F 62.6 °F 78% 29.62 in 10.0 mi East 9.2 mph - N/A   Overcast
3:45 PM 71.6 °F 64.4 °F 78% 29.60 in 10.0 mi ESE 10.4 mph - N/A   Scattered Clouds
3:53 PM 72.0 °F 64.0 °F 76% 29.60 in 10.0 mi East 10.4 mph - N/A   Mostly Cloudy
4:53 PM 78.1 °F 68.0 °F 71% 29.58 in 10.0 mi SE 10.4 mph - N/A   Partly Cloudy
5:53 PM 79.0 °F 68.0 °F 69% 29.59 in 10.0 mi SSW 10.4 mph - N/A   Mostly Cloudy
6:53 PM 78.1 °F 64.9 °F 64% 29.59 in 10.0 mi SW 13.8 mph - N/A   Clear
7:53 PM 72.0 °F 63.0 °F 73% 29.60 in 10.0 mi WSW 10.4 mph - N/A   Clear
8:53 PM 68.0 °F 62.1 °F 81% 29.62 in 10.0 mi WSW 8.1 mph - N/A   Clear
9:53 PM 64.9 °F 62.1 °F 90% 29.59 in 10.0 mi WNW 5.8 mph - N/A   Clear
10:53 PM 64.0 °F 61.0 °F 90% 29.60 in 10.0 mi WNW 3.5 mph - N/A   Clear
11:53 PM 64.0 °F 61.0 °F 90% 29.68 in 10.0 mi SSW 3.5 mph - N/A   Mostly Cloudy